Theta_e
330 328 322 316 305 305 300 301 309 307 308 316 312 314 315 318 312 308 333 335 337 337 339 339 339 336 334 332 330 330 330 330 329 329 328 328 329 330 331 333 333 334 333 332 331 331 331 330 328
327 324 319 312 302 299 300 304 306 310 317 319 320 319 317 315 321 325 330 337 338 338 338 337 336 334 333 331 329 329 329 329 328 328 328 328 330 330 330 332 333 333 332 332 331 331 330 329 329
326 319 315 306 303 300 299 306 311 316 318 319 319 323 319 316 324 328 335 337 338 337 338 336 336 333 332 330 329 329 328 327 327 327 327 328 328 329 330 329 331 333 332 333 332 331 330 329 329
324 322 311 302 298 300 304 310 317 314 318 321 321 316 324 329 327 332 336 337 337 337 337 335 335 332 330 329 328 327 327 326 326 327 326 327 329 329 330 330 330 331 331 331 332 329 329 329 330
325 315 307 301 298 302 308 317 317 314 316 318 318 315 318 329 334 336 336 336 335 336 336 333 333 330 329 328 326 326 326 325 325 326 325 326 326 327 328 330 329 331 330 330 330 328 328 329 330
317 310 305 300 299 303 311 315 315 316 317 317 318 317 320 332 333 335 336 335 335 335 334 331 326 329 327 325 324 324 325 325 325 324 324 324 323 326 327 329 329 329 329 328 328 328 328 328 326
312 308 303 301 299 304 308 313 313 316 316 316 320 315 321 326 332 335 335 335 334 333 330 326 324 325 324 323 324 323 323 323 322 322 321 322 321 322 323 325 328 328 327 327 326 327 327 326 323
313 307 298 300 301 302 306 311 314 316 315 320 321 315 315 324 330 334 332 330 328 327 323 320 322 323 322 322 321 321 321 320 319 318 317 316 317 317 318 321 324 327 326 325 325 326 325 323 319
313 303 299 298 300 300 308 310 314 316 317 317 319 321 324 327 328 328 326 326 324 320 317 317 321 322 321 320 317 318 317 316 316 316 314 318 320 319 318 317 320 324 325 324 324 324 321 317 315
311 304 301 300 301 303 307 311 313 314 314 315 317 321 326 324 325 326 325 324 322 317 314 315 320 320 321 318 319 319 317 318 318 318 317 318 317 317 316 314 314 317 321 323 322 320 317 318 315
305 306 302 299 301 307 308 310 313 313 311 315 316 318 321 322 323 326 326 326 324 318 314 316 320 320 320 319 320 320 319 319 318 317 317 317 318 319 319 319 321 322 318 321 321 319 316 315 313
299 300 301 301 302 305 307 310 309 313 311 314 320 321 321 321 320 325 324 323 322 317 317 317 320 320 320 320 320 319 318 318 318 318 317 318 317 318 318 319 320 321 323 320 320 315 312 309 307
299 300 301 302 303 304 306 305 307 308 311 316 321 322 322 322 322 326 325 326 324 320 320 319 319 320 319 318 319 318 318 317 317 318 318 318 318 317 319 320 321 320 321 320 316 312 311 307 304
300 300 300 301 301 301 303 302 303 306 315 318 319 318 322 323 323 323 324 324 325 323 320 319 317 319 318 317 318 318 318 317 318 319 318 318 318 319 318 318 319 320 319 318 316 316 311 306 302
301 297 300 300 300 299 301 298 299 306 315 314 316 320 321 322 322 323 324 326 327 322 318 315 316 317 317 317 318 317 317 317 318 317 316 316 317 318 317 317 317 319 316 316 315 314 304 297 295
300 303 300 300 300 299 301 301 299 305 312 314 315 318 319 320 322 323 324 327 327 321 315 315 315 315 315 316 316 316 316 317 317 316 316 315 315 315 316 316 315 317 315 315 314 308 300 295 293
299 297 300 298 300 298 299 301 301 303 307 310 313 316 317 319 321 322 325 325 324 325 319 314 316 314 313 312 313 313 314 315 315 315 314 313 313 313 314 314 315 315 315 314 313 309 301 294 292
294 297 297 299 300 299 298 300 301 302 304 305 308 312 314 316 318 321 320 320 323 324 320 316 316 314 313 312 313 312 311 312 312 313 313 311 312 311 312 313 312 313 314 312 311 307 299 294 292
301 299 298 298 300 298 299 299 303 305 302 303 305 306 308 312 317 319 319 318 317 319 319 318 316 316 314 314 311 310 309 309 309 311 310 309 310 309 310 311 311 311 311 313 311 304 296 294 292
298 296 294 297 298 298 297 296 299 300 301 303 304 305 306 308 310 311 314 316 315 316 317 318 317 317 315 315 315 313 312 310 309 309 307 306 307 308 308 309 309 309 309 310 310 303 296 294 293
296 296 294 294 295 295 294 293 294 297 298 300 302 303 304 305 306 308 309 312 314 314 315 316 317 317 316 316 315 313 310 309 308 308 307 303 302 304 306 307 308 308 307 308 309 304 301 296 294
291 296 296 293 292 289 293 289 292 295 298 299 299 302 302 303 305 305 305 307 310 312 315 314 314 315 315 316 314 312 311 310 311 311 306 302 300 300 302 305 305 305 306 305 307 306 303 302 296
291 296 294 293 291 290 289 289 291 294 295 297 298 299 300 301 301 303 304 305 308 309 311 312 312 313 314 314 314 314 312 313 313 307 302 300 298 297 299 302 303 303 303 303 303 304 300 302 302
295 293 291 291 290 285 286 287 289 292 292 295 296 297 298 298 300 303 304 304 306 307 307 309 309 310 312 312 313 313 312 312 310 304 301 299 297 296 297 299 302 302 301 300 301 300 302 301 300
294 290 284 283 284 281 287 285 289 293 293 294 295 296 298 299 301 302 303 304 305 305 306 306 307 307 309 310 311 312 311 312 310 308 303 299 297 295 295 297 299 300 299 298 298 297 298 299 301
290 289 284 276 279 282 285 282 288 293 294 294 295 296 298 299 300 301 303 304 304 304 305 305 305 305 307 308 309 310 311 310 310 311 308 304 301 298 296 296 298 299 298 297 296 295 295 295 296
290 288 290 284 281 281 284 287 290 292 292 293 294 296 297 299 300 301 302 303 303 304 304 303 304 305 306 306 307 307 308 308 309 310 309 306 303 299 297 296 296 298 297 295 294 293 292 291 292
292 293 286 287 278 275 280 283 284 289 291 292 294 295 296 297 298 300 301 301 301 302 303 303 303 303 304 305 305 305 306 306 306 307 306 306 305 300 296 295 295 296 295 294 292 292 291 289 289
289 288 288 288 286 279 277 282 291 291 292 292 293 294 295 296 297 298 298 299 300 301 301 301 301 301 301 302 303 303 303 304 304 303 304 304 304 302 296 294 293 293 293 292 291 290 289 287 287
290 289 289 283 280 284 283 283 291 292 292 291 292 294 297 297 298 297 297 297 298 298 299 299 299 299 299 300 301 301 301 302 301 301 302 303 302 302 298 295 292 292 292 291 289 288 287 286 286
Wind_Speed
12 5 2 4 5 2 4 5 1 7 8 3 5 3 3 8 3 4 9 8 15 13 13 12 12 12 11 10 9 8 8 9 9 9 9 9 10 9 10 12 12 12 11 12 12 11 13 14 13
10 3 3 1 5 8 5 5 7 7 8 12 9 6 3 5 3 9 9 13 14 12 10 10 11 11 12 9 9 8 9 9 10 9 9 9 9 9 10 11 12 10 10 11 11 13 15 14 13
6 3 3 3 3 10 5 7 11 12 7 6 5 4 3 4 7 11 12 14 13 11 10 11 10 11 10 10 9 9 9 9 9 9 9 9 9 9 10 10 11 11 10 12 13 15 14 14 13
4 4 3 5 6 3 3 11 16 12 5 2 9 8 5 1 9 7 15 14 12 11 11 10 10 11 10 10 10 9 9 9 9 10 9 9 10 10 10 10 9 11 12 12 12 13 13 13 14
2 3 3 3 3 3 3 13 11 9 6 8 2 6 7 8 5 16 15 13 13 11 10 10 10 11 10 10 10 9 9 9 8 10 9 11 11 11 11 12 10 10 12 12 13 13 13 14 17
3 2 6 6 5 5 7 10 9 7 7 7 8 10 6 4 13 14 13 12 10 11 10 10 11 11 10 9 9 9 9 9 8 8 8 7 7 9 11 12 9 9 11 11 12 12 15 15 16
4 3 2 6 9 8 7 6 7 9 10 6 6 7 5 9 10 11 12 11 10 10 10 8 8 10 10 9 9 9 9 9 9 9 8 8 8 8 10 11 10 8 11 10 11 12 15 16 16
4 2 5 4 12 6 9 5 3 4 6 5 1 5 8 12 9 10 10 10 10 9 9 7 7 7 6 7 8 9 9 9 9 8 7 6 5 6 7 6 9 8 10 8 11 13 15 15 17
3 3 5 7 11 9 9 6 2 1 8 3 3 1 2 15 11 11 10 9 8 7 7 6 6 6 6 6 5 7 8 6 4 4 5 1 4 4 4 7 8 8 9 9 12 14 14 16 17
4 4 5 2 3 9 11 7 10 7 9 5 5 3 12 15 13 14 12 11 10 9 8 6 6 6 5 4 5 5 4 4 4 4 4 3 3 4 3 3 5 6 7 10 13 11 7 4 5
1 3 7 3 3 11 10 8 4 9 8 7 11 11 15 14 15 15 13 13 12 10 7 8 6 6 5 4 3 2 2 2 3 4 3 3 2 2 2 1 1 3 2 5 7 6 5 7 5
3 4 2 5 3 6 9 9 5 6 3 2 5 14 15 15 15 14 11 10 11 11 10 8 7 6 5 3 3 3 2 2 2 2 2 1 1 2 2 1 2 3 3 6 6 5 9 10 10
3 6 5 5 8 8 7 4 0 4 2 1 8 12 14 15 14 11 7 7 8 10 10 10 8 6 5 5 3 2 2 2 2 1 2 1 1 1 1 1 1 2 4 5 6 8 8 9 10
4 10 9 3 5 5 5 3 1 2 2 6 9 11 13 15 15 11 8 9 10 9 10 9 9 8 6 5 5 3 2 2 1 0 1 2 2 1 0 0 1 2 4 4 6 7 7 7 8
11 10 9 7 3 4 1 3 2 3 5 8 9 10 11 13 13 14 11 10 9 7 6 8 9 9 9 7 6 4 3 3 2 0 1 2 3 2 2 2 2 2 2 6 6 7 8 7 8
4 4 7 4 4 1 4 4 4 2 7 9 9 9 12 13 14 13 11 11 9 7 8 9 7 9 9 8 6 4 5 4 3 2 1 2 2 3 3 3 3 2 3 5 7 7 7 7 7
4 5 5 5 2 1 1 1 3 2 6 8 9 11 11 13 13 12 11 11 9 9 9 9 9 9 8 6 5 5 5 4 4 3 2 2 2 3 4 4 3 3 3 5 4 7 8 7 7
5 6 3 4 3 1 2 6 5 6 8 10 11 12 12 14 16 12 12 9 8 7 7 8 8 9 8 5 4 4 3 4 4 3 2 2 3 4 4 4 4 4 4 4 4 6 6 7 8
9 7 6 3 4 3 1 7 11 7 10 12 11 10 11 14 12 11 11 11 10 9 9 11 10 10 8 7 5 5 6 5 5 4 5 4 4 4 5 4 4 4 5 5 6 6 9 6 8
7 10 4 3 4 3 5 12 10 5 7 8 11 11 11 11 9 10 11 11 13 13 13 12 13 13 11 8 7 5 4 5 5 4 5 5 5 5 4 5 5 5 5 6 7 9 7 3 8
6 5 5 4 4 3 10 2 5 4 2 4 5 4 6 9 10 10 11 13 12 15 14 14 13 12 12 12 7 5 3 3 4 5 5 5 5 5 5 6 5 6 5 6 8 8 9 6 8
5 3 7 5 4 1 6 2 4 6 10 13 12 12 10 10 9 8 9 11 11 11 11 12 12 12 11 12 10 12 9 8 5 4 3 4 6 5 6 6 6 6 5 7 7 6 8 4 7
5 4 6 4 5 3 4 1 4 2 7 13 14 13 12 10 10 10 9 7 6 7 8 10 11 12 11 11 12 9 11 8 6 4 5 5 4 6 7 7 6 7 6 7 8 8 7 4 6
11 6 4 3 2 2 3 4 4 4 6 11 12 12 12 12 12 11 9 7 5 5 5 6 9 11 9 11 13 13 13 11 8 6 5 5 5 5 7 8 8 8 8 8 8 9 11 9 7
1 2 1 2 1 2 2 3 5 6 7 6 13 11 11 10 12 11 11 9 8 8 6 5 6 8 8 11 12 13 14 13 13 12 7 7 5 5 8 9 10 8 9 9 8 9 10 11 11
2 2 1 2 2 2 1 2 6 7 6 5 7 8 9 12 12 12 10 8 7 8 8 6 6 8 9 10 12 11 12 9 10 12 10 8 7 7 8 9 10 11 11 10 10 8 8 8 9
1 3 2 6 3 1 2 2 6 7 4 7 7 10 12 13 12 12 9 7 6 6 5 6 7 9 9 11 11 12 11 13 12 14 12 9 10 8 10 11 11 12 12 11 10 8 9 9 9
2 4 2 2 3 2 0 5 7 9 10 3 11 11 8 8 13 13 11 10 8 8 8 7 8 9 10 11 12 11 13 14 14 13 14 14 13 11 10 12 12 12 11 11 12 10 10 10 8
2 0 4 2 2 1 0 2 4 12 8 4 4 3 7 11 12 11 9 9 9 7 7 8 8 10 11 10 11 13 13 14 14 14 15 16 14 13 11 11 11 11 13 13 13 12 11 12 11
1 2 2 2 4 2 1 7 5 6 6 2 3 4 13 11 12 8 8 9 9 11 10 10 10 9 10 10 11 12 13 13 14 15 15 14 15 13 13 12 12 12 13 13 14 14 12 13 13
Wind_Direction
317 328 248 211 214 219 153 149 44 136 136 90 124 208 114 23 356 42 136 144 135 137 129 121 109 105 95 85 71 58 49 44 47 51 53 46 52 36 35 32 37 40 50 55 53 54 49 52 45
318 300 222 198 236 199 164 135 171 131 115 125 106 122 105 82 60 124 130 147 142 135 130 122 111 108 101 89 75 64 55 48 49 51 53 55 52 41 36 28 30 42 57 57 59 58 57 50 52
289 313 245 219 222 213 167 162 136 124 126 142 119 51 56 88 137 137 127 143 137 134 127 115 111 104 99 91 79 68 58 49 48 53 50 53 52 43 33 29 32 48 58 63 68 68 59 54 50
329 200 150 240 179 83 90 147 137 137 116 92 128 93 101 344 135 131 142 143 138 132 122 119 107 99 88 77 71 64 58 56 50 57 55 52 37 35 40 31 35 50 60 63 70 71 63 63 56
322 256 186 139 126 87 113 134 154 141 122 132 159 116 104 140 122 139 145 148 143 136 122 114 99 96 89 81 74 69 70 65 61 54 48 36 26 23 24 27 48 56 67 67 73 70 68 66 61
258 281 196 179 140 109 130 139 148 135 141 133 122 122 123 108 150 150 148 149 141 131 126 119 97 89 87 81 82 80 77 67 60 57 48 46 42 22 15 28 39 69 73 72 78 75 76 74 66
285 244 154 148 140 152 153 168 180 142 147 137 123 121 110 153 141 151 151 142 138 128 122 118 117 107 87 75 78 79 74 72 64 61 56 53 45 35 23 17 28 72 82 83 84 83 83 78 68
284 255 141 167 171 148 145 126 140 186 135 123 273 152 163 163 146 151 147 136 129 123 123 122 129 119 107 103 72 78 78 72 64 57 54 55 70 39 32 350 24 51 90 96 87 87 83 74 66
265 226 187 169 173 138 155 151 126 88 144 139 128 141 135 141 150 146 143 138 135 130 135 143 141 131 126 115 105 111 96 89 96 94 57 132 58 48 40 38 20 22 93 98 93 94 91 81 64
262 244 167 103 128 154 156 172 147 172 155 158 157 108 142 140 165 166 169 167 167 162 158 158 158 141 141 120 108 91 95 76 81 74 63 58 56 46 40 50 44 40 39 86 96 97 101 66 72
279 246 136 110 117 144 138 145 156 156 191 193 189 164 163 161 180 184 182 183 179 168 170 176 165 155 152 135 126 108 73 84 81 65 53 63 82 89 78 88 100 130 159 128 131 112 76 72 68
227 79 86 141 125 128 144 129 159 202 63 26 183 168 168 171 184 194 192 177 169 176 179 177 177 169 159 152 157 137 131 114 84 52 32 42 80 87 101 121 131 155 160 141 130 112 107 96 86
211 117 78 104 112 90 121 103 75 197 349 216 168 168 178 181 188 207 210 202 170 184 183 186 180 179 163 171 153 149 147 138 101 81 47 351 348 46 131 126 128 148 165 153 131 127 113 101 89
134 113 105 79 103 80 127 113 235 120 105 147 168 178 192 193 196 207 216 203 196 196 193 176 180 178 171 182 175 163 176 156 163 120 23 2 317 307 295 220 164 150 143 158 147 137 133 104 102
122 105 117 47 1 83 131 146 196 72 164 177 187 190 194 195 197 215 218 227 212 202 194 186 182 175 177 182 178 181 188 204 204 92 315 339 315 308 286 244 239 117 138 152 145 122 108 108 97
127 147 146 35 352 34 260 161 126 140 199 191 196 208 202 203 212 215 226 231 217 195 191 185 183 188 184 188 181 193 190 193 198 213 243 278 296 313 280 255 223 201 159 173 160 141 132 120 114
7 141 144 138 34 110 330 103 126 162 211 223 213 217 224 223 219 229 229 236 224 217 199 191 189 187 188 181 184 184 201 229 194 201 232 272 292 308 292 281 276 257 191 180 181 150 147 135 123
156 144 126 139 70 102 174 252 207 194 226 236 226 222 229 234 234 221 228 233 239 229 216 209 198 191 183 177 189 183 201 229 236 188 217 244 258 269 275 272 271 263 235 188 160 148 134 137 132
121 124 124 81 51 310 297 280 264 233 228 249 255 251 241 244 254 246 235 228 231 230 219 220 208 204 194 194 187 216 222 220 227 217 184 220 236 247 265 271 273 270 255 227 175 141 141 129 131
114 130 102 99 36 336 335 290 319 316 263 286 282 264 269 270 259 250 248 229 221 227 224 219 219 210 205 203 210 212 204 218 226 215 193 211 221 227 246 255 262 255 250 230 191 164 152 130 191
82 141 150 112 96 59 326 289 29 34 8 8 340 309 316 297 290 285 263 245 231 226 226 224 222 222 215 215 213 207 182 196 204 220 223 213 221 237 222 235 244 250 251 246 218 188 187 175 204
100 67 108 99 182 143 356 121 48 3 84 56 38 44 30 6 347 322 292 267 250 248 244 239 232 227 224 217 222 227 236 246 241 241 220 204 208 225 235 233 242 246 242 247 237 208 209 200 198
109 112 91 89 91 172 22 201 96 270 36 28 18 10 16 6 355 350 348 329 300 270 250 248 241 233 226 224 230 237 243 249 252 209 194 202 211 226 233 228 228 242 243 242 243 227 224 216 207
138 110 85 94 142 101 348 334 67 42 3 24 48 35 18 3 6 16 20 11 353 334 291 275 253 245 236 232 234 238 246 249 241 213 210 206 202 210 223 228 223 229 228 234 236 233 233 219 222
110 162 155 133 99 113 348 299 64 33 43 79 76 50 31 23 26 24 26 13 1 355 338 306 279 262 246 240 240 239 244 245 240 239 217 201 211 212 218 214 213 219 227 227 225 229 232 232 229
69 320 19 139 144 117 25 221 108 90 103 101 90 43 30 33 34 33 20 8 353 345 339 321 295 271 249 242 240 241 246 248 250 246 236 227 221 216 204 208 221 212 218 223 224 227 229 235 240
109 65 16 99 28 253 324 179 77 137 114 115 59 38 35 37 32 18 13 8 343 326 316 303 288 274 259 252 248 245 242 242 245 247 245 238 233 219 214 215 218 214 209 214 218 221 221 222 227
21 123 109 30 147 183 166 290 135 171 156 81 32 39 40 23 2 352 358 353 346 331 317 301 280 266 261 255 246 241 236 236 241 246 245 242 240 228 217 217 219 224 218 212 214 217 214 213 213
101 130 52 81 348 111 156 235 179 174 156 37 29 37 358 342 349 354 354 356 345 328 315 307 300 295 285 274 267 258 258 253 243 237 238 240 240 234 220 212 210 217 218 213 217 221 212 211 213
255 179 192 220 151 102 155 247 181 140 164 210 33 354 343 358 348 354 358 348 356 356 350 336 323 308 300 292 281 274 267 257 257 260 258 252 247 241 234 226 216 216 219 217 218 219 218 216 210